Location: Chevoux
(46.3801°N, 4.9476°E)
Time: 21:02:55
(UTC+00:00)

S3M - Pass Details

Date: 28 January 2021
Orbit: 949 x 1004 km, 83.0° (Epoch: 03 March)

Event Time Altitude Azimuth Distance (km) Brightness Sun altitude
Rises 18:00:20 0° 356° (N) 3,634 6.9 -14.1°
Reaches altitude 10° 18:03:00 10° 3° (N) 2,684 6.2 -14.6°
Maximum altitude 18:08:47 43° 74° (ENE) 1,320 4.2 -15.5°
Drops below altitude 10° 18:14:34 10° 145° (SE) 2,679 6.0 -16.5°
Sets 18:17:12 0° 152° (SSE) 3,626 6.8 -17.0°
